Helicity
39 65 49 53 78 93 95 101 88 108 130 113 132 160 163 170 109 95 160 205 235 240 173 232 243 228 192 144 120 100 88 67 82 78 100 96 88 85 76 71 69 68 69 75
70 55 69 103 102 94 95 91 85 89 113 113 104 87 70 102 81 73 148 179 151 157 235 274 286 250 201 160 119 102 81 85 93 100 102 96 83 82 82 72 81 82 83 88
73 65 105 96 98 89 96 117 98 104 114 103 121 85 65 113 122 78 113 122 97 137 231 309 298 245 200 160 132 103 93 95 98 107 122 120 124 108 99 93 90 96 98 92
59 84 90 94 96 118 100 104 100 109 130 120 179 147 75 121 88 84 93 72 31 77 200 300 313 244 192 149 140 120 113 112 110 114 120 101 88 112 95 100 103 116 123 117
67 110 112 110 99 130 91 98 96 153 155 177 122 200 67 147 108 154 55 21 3 14 162 256 260 228 178 189 162 150 143 137 135 143 142 127 134 132 125 145 160 134 129 128
100 139 117 117 131 118 123 97 129 174 170 178 81 194 149 168 225 226 140 39 51 38 79 172 198 212 187 198 203 187 172 167 160 165 162 145 143 153 176 197 196 163 130 123
102 124 147 128 143 136 130 141 104 167 180 131 153 253 315 191 230 145 170 99 37 55 80 127 196 213 205 206 204 193 193 190 172 177 184 168 177 187 198 198 227 185 156 134
94 109 117 137 119 125 156 151 152 208 191 195 240 241 146 163 214 185 182 140 88 76 68 97 166 195 210 191 184 191 192 196 180 190 195 189 190 193 193 197 243 240 201 184
107 130 194 235 232 205 189 190 174 225 255 249 186 196 240 230 285 238 162 136 63 97 81 70 143 141 143 153 147 155 185 196 193 209 222 214 215 218 211 230 267 262 241 219
169 164 188 215 226 234 249 259 276 269 263 235 245 240 216 222 270 312 382 271 73 80 228 304 325 305 249 162 135 134 151 172 194 224 229 223 248 265 276 283 291 267 249 225
188 239 246 281 234 209 280 302 274 314 367 324 282 185 143 336 578 487 337 404 269 305 361 356 352 335 330 351 274 204 172 174 195 219 221 233 246 275 283 234 234 237 219 178
217 267 302 212 269 274 283 265 312 362 293 336 334 317 434 522 613 587 438 308 267 461 424 391 362 332 305 288 298 310 299 253 211 221 250 272 268 206 187 194 213 191 192 169
246 280 283 222 229 265 255 289 336 298 343 347 336 417 298 493 452 360 216 283 366 383 363 287 281 257 211 180 194 218 247 282 298 317 270 224 171 175 181 178 169 138 131 146
241 277 294 267 222 214 278 294 253 251 325 267 408 258 380 355 331 315 301 300 239 212 228 200 197 202 159 132 175 228 253 255 252 222 183 153 143 180 167 113 107 120 131 125
271 277 262 213 164 187 165 183 205 241 286 313 215 209 214 368 354 333 282 232 257 215 266 248 186 133 134 179 172 185 185 183 181 183 175 147 124 119 120 133 141 148 135 117
229 241 245 168 168 166 134 145 151 138 137 159 170 146 358 393 320 379 385 369 280 305 244 211 149 92 167 202 183 176 174 158 145 150 144 127 121 145 122 133 148 143 134 122
263 275 257 210 155 140 193 173 128 172 339 273 259 424 523 417 514 439 359 244 295 146 177 147 133 197 189 169 169 160 151 132 142 135 131 129 146 161 171 163 152 143 139 135
292 326 287 230 211 258 315 341 308 422 410 429 429 449 359 353 406 222 66 103 109 117 96 150 166 160 148 139 142 124 121 133 138 135 135 135 137 136 134 136 129 122 122 120
129 186 263 310 284 298 327 384 351 315 337 428 405 303 338 223 99 93 109 71 69 116 152 122 107 111 119 116 105 110 127 138 137 136 137 142 142 142 134 129 127 129 136 138
116 117 257 344 337 312 343 326 315 272 294 308 267 220 176 57 22 167 105 106 140 126 108 101 93 86 94 96 95 118 119 120 130 133 135 137 145 149 153 152 152 147 151 150
312 340 241 245 292 279 311 356 246 186 239 175 156 201 201 149 140 99 129 140 115 96 85 90 86 84 93 109 125 121 128 137 134 132 141 146 152 155 149 152 159 159 154 153
276 284 312 268 263 275 288 110 87 140 202 194 170 145 111 92 114 144 131 109 88 85 88 104 111 105 101 116 126 112 106 116 130 139 137 140 142 139 136 138 138 139 148 147
157 226 240 282 351 349 315 185 205 153 132 157 146 134 134 135 151 141 120 90 87 91 95 98 94 102 106 107 115 129 117 107 114 115 112 112 112 112 114 121 116 120 128 145
334 314 306 330 351 81 136 180 241 197 169 132 120 136 136 134 107 99 93 96 101 95 106 108 107 93 75 81 88 91 95 112 127 125 121 118 126 116 121 124 121 119 130 130
177 281 360 261 161 105 159 189 160 161 154 136 99 88 102 100 92 81 91 100 106 98 81 76 77 84 91 86 92 98 101 125 135 137 135 135 128 132 125 117 121 123 112 110
315 203 81 76 184 148 124 116 133 115 68 61 85 91 85 76 76 86 89 80 75 71 84 77 79 86 91 94 100 98 113 129 145 134 133 135 132 127 118 119 108 68 60 48
Wind_Speed
38 44 43 37 39 41 43 44 45 42 38 44 44 42 36 37 18 18 16 12 8 7 7 7 7 10 12 15 18 19 22 25 27 30 32 31 33 35 38 41 44 44 44 45
45 46 38 36 40 44 45 50 50 45 40 59 54 52 49 39 28 22 13 11 13 13 13 9 8 9 9 10 14 16 19 22 25 28 30 31 29 32 33 38 42 43 45 45
43 47 35 42 46 49 47 50 51 53 59 53 56 55 46 36 34 35 27 18 18 17 15 11 9 9 10 10 12 13 16 19 24 26 28 29 30 30 33 38 40 43 44 45
45 35 40 44 48 44 57 42 47 60 69 71 55 65 52 37 32 30 32 28 20 24 18 13 11 10 10 12 13 14 14 18 23 26 27 29 30 32 33 34 36 41 43 44
49 43 46 50 47 39 49 47 53 58 59 63 55 54 46 39 37 33 29 27 25 23 22 15 12 11 12 12 12 12 14 20 24 27 29 29 30 32 31 33 35 37 41 44
45 41 42 45 41 40 46 54 60 50 54 65 56 45 53 48 40 34 37 28 24 24 27 21 16 15 14 14 14 12 16 22 25 28 30 29 29 31 33 34 35 37 38 40
52 48 39 36 48 43 46 59 73 71 72 70 47 54 58 52 36 32 36 34 23 23 27 30 25 19 18 18 16 14 19 25 27 28 30 31 31 33 34 36 37 38 39 39
62 67 44 34 42 55 49 52 60 80 81 81 55 63 56 48 31 31 35 37 26 27 31 33 28 22 20 21 17 17 21 28 29 30 30 34 34 36 37 39 39 39 40 42
63 64 48 43 48 44 52 57 47 64 65 74 61 56 46 39 33 34 36 35 36 37 37 37 32 27 24 23 22 21 25 29 31 31 32 35 38 38 41 42 43 42 42 44
57 80 54 52 46 45 50 46 64 58 77 79 67 65 59 38 34 39 48 53 47 42 44 42 41 42 41 35 31 26 30 33 34 34 33 36 39 42 44 47 47 47 49 49
53 61 71 56 60 63 57 59 52 52 51 70 77 60 35 35 41 47 53 62 57 43 42 42 43 45 46 47 42 38 37 37 36 36 36 38 42 46 49 52 51 50 50 50
55 67 82 76 61 55 53 53 44 55 60 51 59 67 43 39 47 56 59 54 49 46 46 46 47 50 53 53 51 49 45 43 41 40 41 43 47 55 54 53 50 50 52 52
53 66 87 82 61 54 52 46 46 53 55 70 70 62 41 44 53 54 49 49 47 48 49 49 53 57 58 57 55 55 52 50 48 48 52 58 57 52 52 52 50 54 53 53
48 65 69 82 76 67 69 61 55 51 65 72 65 68 53 59 58 53 52 47 45 45 48 52 58 60 60 60 59 58 58 56 58 56 54 54 53 51 52 52 49 50 53 57
53 74 66 68 70 71 74 72 63 61 65 71 78 73 71 56 51 49 47 46 47 50 54 56 59 62 63 63 64 62 61 59 58 57 56 55 55 53 52 54 53 56 58 60
52 77 71 87 72 70 80 71 66 66 63 67 69 69 50 47 46 50 51 50 50 54 56 60 62 64 65 65 64 64 65 63 61 60 59 57 56 55 55 52 56 59 60 62
61 63 71 93 71 74 90 69 59 58 58 60 65 55 52 48 51 52 52 48 55 57 63 66 66 66 66 67 67 69 68 66 65 64 62 60 58 57 58 59 60 63 66 68
62 60 65 86 75 94 66 54 51 48 54 54 52 51 49 46 42 43 45 55 58 62 67 69 68 69 69 68 70 70 70 70 70 68 67 66 65 64 62 63 65 67 67 68
45 52 68 77 75 74 65 60 60 60 59 53 54 49 53 44 35 48 55 63 65 69 69 69 70 72 71 71 70 71 73 73 73 72 70 67 66 67 68 69 70 69 70 70
48 46 58 66 81 89 66 53 51 45 68 47 45 49 51 48 55 62 67 68 69 69 69 71 72 72 72 75 74 75 77 76 76 74 73 71 72 73 73 72 72 71 69 71
68 63 68 71 75 66 63 55 42 58 60 42 47 51 56 62 63 65 67 71 69 71 73 74 77 79 79 82 80 80 79 80 77 74 76 75 75 76 75 74 72 72 72 73
70 66 68 61 73 84 51 38 50 46 49 55 55 58 60 63 65 69 70 73 74 77 79 79 80 80 81 82 81 81 83 79 78 79 79 78 78 77 76 75 74 73 73 76
70 59 65 66 65 47 51 49 48 52 55 56 56 58 61 65 68 71 74 76 79 81 82 80 81 84 83 80 78 85 82 81 80 79 78 77 76 74 72 73 74 72 69 69
61 53 62 62 52 43 44 47 50 50 51 54 56 59 64 70 73 76 77 79 81 81 84 80 85 87 84 75 78 78 79 77 78 80 79 77 75 75 71 68 69 69 68 68
59 65 60 55 46 45 50 49 49 51 54 58 61 65 69 71 74 75 79 81 82 83 81 80 82 80 81 80 79 76 78 77 78 77 76 75 73 73 72 68 66 66 63 60
50 52 60 63 48 51 51 50 53 56 60 64 69 71 70 70 75 77 79 79 80 79 78 79 78 80 81 79 79 79 75 73 76 78 76 73 73 71 70 70 72 65 66 66
Wind_Direction
359 344 347 359 358 358 355 352 350 352 359 352 348 338 331 337 323 327 329 335 336 335 348 355 2 1 1 358 355 358 0 3 7 3 5 7 7 13 9 1 351 345 342 343
342 339 354 360 356 350 350 345 345 350 356 345 344 339 342 354 357 347 343 335 338 342 345 347 352 351 346 347 347 351 355 1 1 0 2 2 8 9 11 0 352 348 342 340
339 338 356 347 345 343 344 341 342 341 342 343 344 343 353 359 354 351 356 347 343 343 339 341 336 334 341 332 334 342 350 357 354 356 358 1 6 3 360 353 348 345 344 341
337 353 345 343 340 343 338 349 344 338 339 338 351 339 347 353 353 353 351 351 348 344 351 345 334 328 324 320 327 335 348 353 350 350 350 346 347 347 351 353 351 344 341 339
333 339 337 336 340 346 339 343 337 336 336 338 343 337 349 351 341 338 344 343 348 348 352 349 333 327 328 324 320 334 346 343 346 344 344 344 345 345 351 350 347 345 342 340
330 341 340 338 343 343 342 338 337 340 338 333 337 336 341 337 333 336 341 339 344 351 355 357 352 343 335 328 322 330 334 334 340 340 338 337 338 338 341 345 341 339 339 340
332 331 341 344 336 342 342 337 330 329 329 328 343 332 326 330 334 338 341 345 345 352 355 353 349 342 336 324 320 326 324 323 329 334 334 332 332 331 332 336 336 333 332 332
324 323 333 344 337 333 334 334 329 323 324 322 328 324 333 343 353 351 349 348 354 351 347 347 350 347 339 327 324 323 319 318 322 326 329 329 329 328 329 331 333 330 328 328
323 322 335 335 335 337 333 326 335 323 322 320 323 328 336 343 347 346 347 351 348 345 344 346 348 349 345 335 328 322 318 317 318 321 324 323 324 324 324 327 328 326 325 324
325 316 326 329 333 331 325 332 324 325 321 319 323 322 322 332 340 344 338 334 335 339 345 351 352 352 345 337 336 335 326 321 320 320 321 320 321 322 322 322 322 321 320 319
325 319 319 325 319 318 322 318 318 321 319 319 320 325 340 341 341 337 334 335 334 340 344 347 349 351 350 347 345 339 334 328 324 322 321 319 319 318 317 316 316 316 317 316
320 316 310 312 320 322 319 315 314 311 319 318 317 312 331 330 331 328 326 333 341 343 341 343 345 345 343 341 341 338 338 334 328 324 321 319 318 314 312 312 314 315 315 315
321 315 312 315 321 325 320 322 319 316 313 307 307 315 330 328 327 327 329 334 336 337 339 339 340 339 338 337 337 335 336 333 329 326 320 316 315 314 313 313 313 313 313 313
318 308 304 303 308 318 312 310 311 305 306 309 299 305 308 315 316 321 325 331 336 339 338 335 335 337 337 336 335 334 333 332 328 324 321 319 317 317 317 315 314 314 314 313
315 306 306 303 305 307 304 305 304 300 298 299 303 303 312 313 316 320 325 328 331 333 334 335 335 336 336 334 334 335 334 333 331 327 325 321 318 316 315 314 313 313 312 311
311 306 309 305 308 306 302 303 302 300 296 294 298 301 317 320 323 323 325 327 329 331 334 335 335 334 335 334 333 334 333 332 331 329 325 322 319 317 314 314 313 312 311 310
307 307 310 306 314 312 305 309 303 310 315 313 309 316 321 318 325 324 326 329 330 330 332 333 334 334 334 333 332 331 331 330 329 326 325 323 320 318 316 315 313 311 309 308
296 301 307 306 311 304 314 328 324 319 320 322 322 322 325 324 329 334 331 331 333 332 332 332 333 333 333 333 332 331 330 328 326 324 323 322 320 317 316 314 312 310 309 309
280 292 302 303 303 307 308 312 314 313 314 323 321 323 326 327 325 330 328 327 328 328 329 331 332 331 331 331 331 331 329 328 326 324 323 323 321 318 316 313 311 311 310 309
299 281 291 300 301 303 313 318 321 318 307 324 326 326 327 328 314 319 326 327 328 329 330 330 331 331 331 329 329 328 327 326 324 324 323 321 319 317 314 313 311 311 310 309
302 298 287 291 296 305 318 319 320 307 316 330 328 325 322 319 320 322 325 325 328 328 329 329 328 327 328 327 328 325 325 323 324 323 322 320 319 317 314 313 311 310 309 308
296 298 299 297 298 301 325 322 311 320 325 324 323 322 320 321 322 323 324 325 326 326 327 328 328 327 328 328 327 326 323 325 323 322 321 319 318 317 315 313 312 310 309 307
299 300 302 303 304 316 325 323 322 322 320 322 322 324 324 323 324 326 326 326 326 326 326 328 327 327 328 329 329 326 326 326 325 324 323 322 321 320 319 316 315 313 312 310
300 306 302 303 306 316 325 328 329 329 327 326 326 326 326 324 325 324 325 326 326 327 326 328 327 327 327 331 331 329 329 328 327 324 323 323 321 320 320 319 317 315 314 312
303 308 304 304 308 316 321 325 327 328 328 325 324 326 326 327 326 326 326 326 327 327 328 330 330 330 330 330 330 331 330 329 327 326 326 324 323 321 319 318 317 316 315 313
310 308 305 304 312 315 319 322 324 323 323 323 324 325 328 327 326 327 326 328 328 329 331 331 331 331 330 331 331 331 332 331 329 327 327 326 324 322 320 318 316 316 314 313